• In Belgien
  • Länderverzeichnis
  • Für 7 Tage
  • Wassertemperatur
  • Satellitenkarten
  • Wetterkarte
  • Widgets
  • user-avatar
    Anmelden

    Stündliche Wetter Weliko Tarnovo

    Heute, 22 Juni, Freitag

    Zeit Temperatur Niederschläge Wind Luftdruck Luftfeuchtigkeit
    00:00 +21°C° 0,2 mm 1 m/S 737 mmHg 75%
    01:00 +21°C° 0,2 mm 1 m/S 737 mmHg 77%
    02:00 +20°C° 0 mm 1 m/S 737 mmHg 81%
    03:00 +20°C° 0 mm 1 m/S 736 mmHg 81%
    04:00 +19°C° 0 mm 1 m/S 736 mmHg 81%
    05:00 +19°C° 0 mm 1 m/S 736 mmHg 81%
    06:00 +21°C° 0 mm 1 m/S 736 mmHg 75%
    07:00 +24°C° 0 mm 1 m/S 736 mmHg 68%
    08:00 +26°C° 0 mm 1 m/S 736 mmHg 62%
    09:00 +27°C° 0,1 mm 1 m/S 736 mmHg 56%
    10:00 +29°C° 0,1 mm 1 m/S 736 mmHg 51%
    11:00 +30°C° 0,1 mm 1 m/S 736 mmHg 45%
    12:00 +31°C° 0 mm 1 m/S 735 mmHg 43%
    13:00 +32°C° 0 mm 1 m/S 735 mmHg 40%
    14:00 +32°C° 0 mm 1 m/S 735 mmHg 38%
    15:00 +32°C° 0 mm 1 m/S 734 mmHg 39%
    16:00 +32°C° 0 mm 1 m/S 734 mmHg 41%
    17:00 +31°C° 0 mm 1 m/S 734 mmHg 42%
    18:00 +29°C° 0,1 mm 1 m/S 734 mmHg 48%
    19:00 +27°C° 0,1 mm 1 m/S 734 mmHg 53%
    20:00 +25°C° 0,1 mm 2 m/S 734 mmHg 59%
    21:00 +24°C° 1,6 mm 3 m/S 734 mmHg 69%
    22:00 +21°C° 1,6 mm 4 m/S 734 mmHg 79%
    23:00 +19°C° 1,6 mm 6 m/S 735 mmHg 89%

    Morgen, 23 Juni, Samstag

    Zeit Temperatur Niederschläge Wind Luftdruck Luftfeuchtigkeit
    00:00 +19°C° 1,1 mm 5 m/S 735 mmHg 89%
    01:00 +17°C° 1,1 mm 5 m/S 735 mmHg 90%
    02:00 +16°C° 1,1 mm 5 m/S 736 mmHg 90%
    03:00 +15°C° 0,1 mm 5 m/S 736 mmHg 89%
    04:00 +14°C° 0,1 mm 5 m/S 736 mmHg 88%
    05:00 +13°C° 0,1 mm 5 m/S 736 mmHg 87%
    06:00 +14°C° 0 mm 6 m/S 736 mmHg 82%
    07:00 +14°C° 0 mm 6 m/S 737 mmHg 77%
    08:00 +15°C° 0 mm 7 m/S 737 mmHg 71%
    09:00 +15°C° 0,1 mm 7 m/S 737 mmHg 68%
    10:00 +16°C° 0,1 mm 7 m/S 738 mmHg 65%
    11:00 +17°C° 0,1 mm 7 m/S 738 mmHg 62%
    12:00 +18°C° 0 mm 7 m/S 738 mmHg 58%
    13:00 +20°C° 0 mm 7 m/S 738 mmHg 54%
    14:00 +21°C° 0 mm 7 m/S 738 mmHg 49%
    15:00 +21°C° 0 mm 6 m/S 738 mmHg 50%
    16:00 +21°C° 0 mm 6 m/S 738 mmHg 50%
    17:00 +21°C° 0 mm 5 m/S 738 mmHg 50%
    18:00 +19°C° 0 mm 4 m/S 738 mmHg 54%
    19:00 +18°C° 0 mm 4 m/S 738 mmHg 58%
    20:00 +16°C° 0 mm 3 m/S 738 mmHg 62%
    21:00 +16°C° 0 mm 3 m/S 738 mmHg 64%
    22:00 +14°C° 0 mm 3 m/S 739 mmHg 66%
    23:00 +13°C° 0 mm 3 m/S 739 mmHg 68%

    übermorgen, 24 Juni, Sonntag

    Zeit Temperatur Niederschläge Wind Luftdruck Luftfeuchtigkeit
    00:00 +12°C° 0 mm 3 m/S 739 mmHg 69%
    01:00 +13°C° 0 mm 2 m/S 739 mmHg 71%
    02:00 +12°C° 0 mm 2 m/S 739 mmHg 72%
    03:00 +12°C° 0 mm 2 m/S 739 mmHg 73%
    04:00 +12°C° 0 mm 2 m/S 739 mmHg 74%
    05:00 +10°C° 0 mm 2 m/S 739 mmHg 75%
    06:00 +13°C° 0 mm 2 m/S 740 mmHg 70%
    07:00 +14°C° 0 mm 3 m/S 740 mmHg 64%
    08:00 +17°C° 0 mm 3 m/S 740 mmHg 59%
    09:00 +19°C° 0 mm 3 m/S 740 mmHg 55%
    10:00 +20°C° 0 mm 3 m/S 740 mmHg 51%
    11:00 +22°C° 0 mm 3 m/S 740 mmHg 46%
    12:00 +24°C° 0 mm 2 m/S 740 mmHg 45%
    13:00 +24°C° 0 mm 2 m/S 739 mmHg 43%
    14:00 +25°C° 0 mm 2 m/S 739 mmHg 41%
    15:00 +24°C° 0 mm 2 m/S 739 mmHg 43%
    16:00 +24°C° 0 mm 2 m/S 739 mmHg 45%
    17:00 +24°C° 0 mm 2 m/S 738 mmHg 47%
    18:00 +21°C° 0 mm 2 m/S 738 mmHg 54%
    19:00 +20°C° 0 mm 1 m/S 739 mmHg 60%
    20:00 +18°C° 0 mm 1 m/S 739 mmHg 66%
    21:00 +18°C° 0 mm 1 m/S 739 mmHg 67%
    22:00 +16°C° 0 mm 1 m/S 739 mmHg 68%
    23:00 +16°C° 0 mm 1 m/S 740 mmHg 69%

    25 Juni, Montag

    Zeit Temperatur Niederschläge Wind Luftdruck Luftfeuchtigkeit
    00:00 +16°C° 0 mm 1 m/S 739 mmHg 70%
    01:00 +15°C° 0 mm 1 m/S 739 mmHg 71%
    02:00 +15°C° 0 mm 1 m/S 739 mmHg 72%
    03:00 +15°C° 0 mm 1 m/S 739 mmHg 74%
    04:00 +14°C° 0 mm 1 m/S 739 mmHg 76%
    05:00 +14°C° 0 mm 1 m/S 739 mmHg 79%
    06:00 +16°C° 0 mm 1 m/S 739 mmHg 73%
    07:00 +19°C° 0 mm 1 m/S 740 mmHg 67%
    08:00 +21°C° 0 mm 1 m/S 740 mmHg 61%
    09:00 +22°C° 0 mm 1 m/S 740 mmHg 56%
    10:00 +23°C° 0 mm 2 m/S 740 mmHg 52%
    11:00 +25°C° 0 mm 2 m/S 740 mmHg 47%
    12:00 +25°C° 0 mm 3 m/S 739 mmHg 45%
    13:00 +26°C° 0 mm 3 m/S 739 mmHg 44%
    14:00 +27°C° 0 mm 3 m/S 739 mmHg 42%
    15:00 +27°C° 0 mm 3 m/S 739 mmHg 43%
    16:00 +26°C° 0 mm 4 m/S 738 mmHg 44%
    17:00 +26°C° 0 mm 4 m/S 738 mmHg 45%
    18:00 +24°C° 0 mm 3 m/S 738 mmHg 51%
    19:00 +22°C° 0 mm 3 m/S 738 mmHg 58%
    20:00 +20°C° 0 mm 2 m/S 738 mmHg 64%
    21:00 +19°C° 0 mm 2 m/S 739 mmHg 69%
    22:00 +18°C° 0 mm 2 m/S 739 mmHg 73%
    23:00 +17°C° 0 mm 2 m/S 739 mmHg 77%

    26 Juni, Dienstag

    Zeit Temperatur Niederschläge Wind Luftdruck Luftfeuchtigkeit
    00:00 +16°C° 0 mm 2 m/S 739 mmHg 80%
    01:00 +16°C° 0 mm 1 m/S 738 mmHg 83%
    02:00 +15°C° 0 mm 1 m/S 738 mmHg 86%
    03:00 +15°C° 0 mm 1 m/S 738 mmHg 87%
    04:00 +15°C° 0 mm 2 m/S 738 mmHg 87%
    05:00 +15°C° 0 mm 2 m/S 738 mmHg 88%
    06:00 +17°C° 0 mm 2 m/S 738 mmHg 81%
    07:00 +19°C° 0 mm 3 m/S 738 mmHg 74%
    08:00 +20°C° 0 mm 4 m/S 738 mmHg 67%
    09:00 +22°C° 0 mm 4 m/S 738 mmHg 63%
    10:00 +23°C° 0 mm 5 m/S 738 mmHg 58%
    11:00 +25°C° 0 mm 5 m/S 738 mmHg 54%
    12:00 +25°C° 0,3 mm 5 m/S 737 mmHg 56%
    13:00 +26°C° 0,3 mm 5 m/S 737 mmHg 58%
    14:00 +26°C° 0,3 mm 4 m/S 737 mmHg 60%
    15:00 +25°C° 0,8 mm 4 m/S 736 mmHg 63%
    16:00 +25°C° 0,8 mm 4 m/S 736 mmHg 66%
    17:00 +23°C° 0,8 mm 4 m/S 736 mmHg 68%
    18:00 +22°C° 0,7 mm 3 m/S 736 mmHg 72%
    19:00 +21°C° 0,7 mm 2 m/S 736 mmHg 77%
    20:00 +19°C° 0,7 mm 2 m/S 736 mmHg 81%
    21:00 +19°C° 2,2 mm 2 m/S 736 mmHg 82%
    22:00 +18°C° 2,2 mm 2 m/S 736 mmHg 83%
    23:00 +18°C° 2,2 mm 2 m/S 736 mmHg 84%

    27 Juni, Mittwoch

    Zeit Temperatur Niederschläge Wind Luftdruck Luftfeuchtigkeit
    00:00 +18°C° 1,3 mm 2 m/S 736 mmHg 85%
    01:00 +19°C° 1,3 mm 1 m/S 736 mmHg 85%
    02:00 +18°C° 1,3 mm 1 m/S 736 mmHg 86%
    03:00 +18°C° 0,9 mm 1 m/S 736 mmHg 87%
    04:00 +18°C° 0,9 mm 1 m/S 736 mmHg 89%
    05:00 +18°C° 0,9 mm 1 m/S 736 mmHg 90%
    06:00 +18°C° 0,9 mm 1 m/S 736 mmHg 90%
    07:00 +17°C° 0,9 mm 2 m/S 736 mmHg 89%
    08:00 +17°C° 0,9 mm 2 m/S 736 mmHg 89%
    09:00 +18°C° 0,8 mm 2 m/S 736 mmHg 87%
    10:00 +18°C° 0,8 mm 2 m/S 736 mmHg 85%
    11:00 +19°C° 0,8 mm 2 m/S 736 mmHg 83%
    12:00 +19°C° 0,7 mm 2 m/S 736 mmHg 84%
    13:00 +19°C° 0,7 mm 2 m/S 736 mmHg 84%
    14:00 +19°C° 0,7 mm 2 m/S 736 mmHg 84%
    15:00 +19°C° 0,5 mm 2 m/S 736 mmHg 85%
    16:00 +19°C° 0,5 mm 2 m/S 736 mmHg 87%
    17:00 +19°C° 0,5 mm 2 m/S 736 mmHg 88%
    18:00 +18°C° 0,3 mm 2 m/S 736 mmHg 88%
    19:00 +18°C° 0,3 mm 2 m/S 736 mmHg 89%
    20:00 +17°C° 0,3 mm 2 m/S 736 mmHg 89%
    21:00 +18°C° 0,2 mm 1 m/S 737 mmHg 89%
    22:00 +18°C° 0,2 mm 1 m/S 737 mmHg 89%
    23:00 +18°C° 0,2 mm 1 m/S 737 mmHg 89%
    Mehr zeigen